Hourly Weather Roundup
Issued by NWS Central Illinois

Home | Current Version | Previous Version | Text Only | Print | Product List | Glossary On
Versions: 1 2 3 4 5 6 7 8 9 10 11 12 13 14 15 16 17 18 19 20 21 22 23 24 25 26 27 28 29 30 31 32 33 34 35 36 37 38 39 40 41 42 43 44 45 46 47 48 49 50
000
NZUS43 KILX 200510
HWRILX

AREA WEATHER ROUNDUP
NATIONAL WEATHER SERVICE, LINCOLN IL
1200 AM CDT SAT SEP 20 2014


CITY           SKY/WX    TMP DP  RH WIND       PRES   REMARKS
BLOOMINGTON    CLEAR     60  53  77 S13       30.00F
CHAMPAIGN      CLEAR     58  52  80 S8        30.02F
DECATUR        CLEAR     59  53  80 S6        30.02F
FLORA          CLEAR     55  54  95 CALM      30.04F FOG
GALESBURG      CLEAR     61  57  87 S8        29.94F
JACKSONVILLE   CLEAR     66  58  77 S8        29.99F
LACON          CLEAR     62  53  73 S6        29.94F
LAWRENCEVILLE  CLEAR     57  55  93 CALM      30.05F
LITCHFIELD     CLEAR     60  56  88 SE7       30.02S
$$


CITY           SKY/WX    TMP DP  RH WIND       PRES   REMARKS
LINCOLN        CLEAR     59  54  82 S6        29.98F
MACOMB         CLEAR     62  57  85 S7        29.99S
MATTOON        CLEAR     56  52  86 S5        30.03F
MT CARMEL AP   CLEAR     55  54  94 CALM      30.05S FOG
OLNEY-NOBLE AP CLEAR     52  52 100 CALM      30.05S
PARIS          CLEAR     50  50  99 CALM      30.05F
PEORIA         CLEAR     65  54  67 S13       29.97F
PONTIAC        CLEAR     59  54  82 S8        29.98F
RANTOUL        CLEAR     55  50  83 S6        30.02F
ROBINSON       CLEAR     55  55  97 CALM      30.06S
SPRINGFIELD    CLEAR     64  55  72 S7        30.00F
TAYLORVILLE    CLEAR     59  54  82 SE8       30.02S
$$

...REGIONAL REPORTS...


CITY           SKY/WX    TMP DP  RH WIND       PRES   REMARKS
CHICAGO O`HARE PTCLDY    65  48  54 S14       29.93F
KANKAKEE       CLEAR     58  52  79 S9        29.99F
MOLINE         CLEAR     67  56  67 S10       29.90F
MOUNT VERNON   CLEAR     55  50  82 CALM      30.05S VSB 1
PITTSFIELD     CLEAR     61  57  87 S5        30.00F
QUINCY         CLEAR     65  58  78 S9        29.96F
ROCKFORD       CLEAR     62  52  69 S9        29.94R
$$


CITY           SKY/WX    TMP DP  RH WIND       PRES   REMARKS
BURLINGTON     CLEAR     65  58  78 S13       29.92F
CEDAR RAPIDS   CLEAR     64  60  87 S10       29.85F
DES MOINES     MOCLDY    71  66  84 SW17      29.83S
KIRKSVILLE     CLEAR     66  62  87 S12       29.95F
OTTUMWA        CLEAR     67  61  81 S12G21    29.86F
ST LOUIS       PTCLDY    69  59  70 S6        30.01F
$$


CITY           SKY/WX    TMP DP  RH WIND       PRES   REMARKS
TERRE HAUTE    CLEAR     51  48  89 CALM      30.05S
EVANSVILLE     CLEAR     62  57  83 CALM      30.06S
INDIANAPOLIS   PTCLDY    58  51  78 CALM      30.05F
LAFAYETTE      CLEAR     52  49  89 CALM      30.03F
MADISON        CLEAR     67  54  63 S14G20    29.86S
MILWAUKEE      MOCLDY    63  48  58 S14       29.88F
$$




USA.gov is the U.S. government's official web portal to all federal, state and local government web resources and services.